Flag for Canada Weather past 2 weeks in Caledon, Ontario, Canada

Now
28 °F

Overcast.


Feels Like: 25 °F
Forecast: 21 / 35 °F
Wind: 3 mph from South

Location: Borden

Current Time: Dec 22, 2014 at 12:13:22 AM

Latest Report: Dec 21, 2014 at 11:00 PM


Visibility: 9 mi

Pressure: 30.28 "Hg

Humidity: 80%

Dew point: 23 °F

Location of CaledonLocation

Historic Weather in Caledon — Graph

°F

Caledon temperature yesterday

Maximum temperature yesterday: 32 °F (at 11:00 AM)
Minimum temperature yesterday: 21 °F (at 5:00 AM)
Average temperature yesterday: 28 °F

Past Weeks' High & Low Weather Summary

 TemperatureHumidityPressure
High37 °F (Dec 9, 1:00 PM)100% (Dec 9, 10:00 AM)30.81 "Hg (Dec 9, 10:00 AM)
Low12 °F (Dec 20, 8:00 AM)40% (Dec 7, 1:00 PM)29.71 "Hg (Dec 16, 1:55 PM)
Average29 °F89%30.10 "Hg
* Reported Dec 6 11:00 PM — Dec 21 11:00 PM, Caledon, Weather by CustomWeather, © 2014

Note: Actual official high and low records may vary slightly from our data, if they occured in-between our weather recording intervals... More about our weather records

Advertising

Caledon weather history for previous 24 hours

 ConditionsComfort  
Time TempWeatherWind HumidityBarometerVisibility
11:00 PM
Dec 21
28 °FOvercast.3 mph80%30.28 "Hg9 mi
10:00 PM28 °FOvercast.3 mph80%30.29 "Hg9 mi
9:00 PM28 °FOvercast.3 mph80%30.31 "Hg9 mi
8:00 PM30 °FOvercast.No wind75%30.31 "Hg9 mi
7:00 PM28 °FOvercast.No wind86%30.31 "Hg9 mi
6:00 PM30 °FOvercast.2 mph80%30.32 "Hg9 mi
5:00 PM30 °FOvercast.No wind75%30.30 "Hg9 mi
4:00 PM32 °FOvercast.3 mph69%30.29 "Hg9 mi
3:00 PM32 °FOvercast.6 mph69%30.29 "Hg9 mi
2:00 PM32 °FOvercast.6 mph69%30.29 "Hg9 mi
1:00 PM32 °FOvercast.2 mph69%30.29 "Hg9 mi
12:00 PM32 °FOvercast.No wind69%30.31 "Hg9 mi
11:00 AM32 °FOvercast.No wind69%30.32 "Hg9 mi
10:00 AM28 °FOvercast.No wind80%30.34 "Hg9 mi
9:00 AM25 °FOvercast.2 mph93%30.33 "Hg9 mi
8:00 AM21 °FMostly cloudy.3 mph93%30.33 "Hg9 mi
7:00 AM23 °FPassing clouds.No wind93%30.32 "Hg9 mi
6:00 AM23 °FOvercast.2 mph93%30.31 "Hg9 mi
5:00 AM21 °FMostly cloudy.2 mph100%30.30 "Hg9 mi
4:00 AM23 °FOvercast.2 mph100%30.29 "Hg9 mi
3:00 AM25 °FMostly cloudy.2 mph93%30.29 "Hg9 mi
2:00 AM25 °FMostly cloudy.No wind93%30.28 "Hg9 mi
1:00 AM25 °FOvercast.No wind93%30.28 "Hg9 mi
12:00 AM25 °FOvercast.2 mph93%30.29 "Hg9 mi
Weather by CustomWeather, © 2014

See weather overviewHow to use our weather pages